Weather History for Langley AFB, VA

Change the Weather History Date:

Sunday, September 22, 2013

  Actual Average Record
Temperature  
Mean Temperature 69 °F -  
Max Temperature 74 °F 77 °F 98 °F (1980)
Min Temperature 64 °F 63 °F 45 °F (1991)
Cooling Degree Days 4    
Growing Degree Days 19 (Base 50)    
Moisture  
Dew Point 65 °F    
Average Humidity 92    
Maximum Humidity 100    
Minimum Humidity 46    
Precipitation  
Precipitation 0.40 in - - ()
Sea Level Pressure  
Sea Level Pressure 29.78 in    
Wind  
Wind Speed 6 mph (NW)    
Max Wind Speed 14 mph    
Max Gust Speed 21 mph    
Visibility 8 miles    
Events Rain    
Averages and records for this station are not official NWS values.
T = Trace of Precipitation, MM = Missing Value Source: NWS Daily Summary

Daily Weather History Graph

Daily Weather History Graph

Search for Another Location

Airport:

Trip Planner

Search our weather history database for the weather conditions in past years. The results will help you decide how hot, cold, wet, or windy it might be!

Date:

Astronomy

Sep. 22, 2013 Rise Set
Actual Time 6:53 AM EDT 7:02 PM EDT
Civil Twilight 6:27 AM EDT 7:27 PM EDT
Nautical Twilight 5:57 AM EDT 7:58 PM EDT
Astronomical Twilight 5:26 AM EDT 8:28 PM EDT
Moon 8:56 PM EDT (9/22) 10:06 AM EDT (9/22)
Length of Visible Light 13h 00m
Length of Day
12h 08m
Waning Gibbous, 89% of the Moon is Illuminated
Sep 22
Waning Gibbous
Sep 26
Last Quarter
Oct 4
New
Oct 11
First Quarter
Oct 18
Full

Hourly Weather History & Observations

Time (EDT) Temp. Dew Point Humidity Pressure Visibility Wind Dir Wind Speed Gust Speed Precip Events Conditions
12:03 AM 68.0 °F 68.0 °F 100% 29.75 in 8.0 mi West 5.8 mph - N/A Rain Light Rain
12:08 AM 68.0 °F 68.0 °F 100% 29.76 in 10.0 mi West 5.8 mph - N/A Rain Light Rain
12:58 AM 67.6 °F 67.6 °F 100% 29.77 in 10.0 mi WSW 1.2 mph - 0.02 in Rain Light Rain
1:23 AM 68.0 °F 68.0 °F 100% 29.76 in 9.0 mi West 2.3 mph - N/A Rain Light Rain
1:28 AM 68.0 °F 68.0 °F 100% 29.75 in 3.0 mi West 1.2 mph - N/A Rain Light Rain
1:38 AM 68.0 °F 68.0 °F 100% 29.75 in 8.0 mi SSW 3.5 mph - N/A Rain Light Rain
1:58 AM 68.2 °F 68.2 °F 100% 29.77 in 10.0 mi SW 5.8 mph - 0.07 in Rain Light Rain
2:13 AM 68.0 °F 68.0 °F 100% 29.75 in 10.0 mi SW 6.9 mph - N/A Rain Light Rain
2:18 AM 68.0 °F 68.0 °F 100% 29.74 in 10.0 mi SSW 6.9 mph - N/A Rain Light Rain
2:23 AM 68.0 °F 68.0 °F 100% 29.74 in 10.0 mi SW 5.8 mph - N/A Rain Light Rain
2:33 AM 68.0 °F 68.0 °F 100% 29.74 in 10.0 mi WSW 8.1 mph - N/A Rain Light Rain
2:58 AM 68.0 °F 68.0 °F 100% 29.75 in 10.0 mi SW 8.1 mph - 0.02 in Rain Light Rain
3:28 AM 68.0 °F 68.0 °F 100% 29.73 in 8.0 mi SW 3.5 mph - N/A Rain Light Rain
3:38 AM 68.0 °F 68.0 °F 100% 29.73 in 10.0 mi WSW 4.6 mph - N/A Rain Light Rain
3:53 AM 68.0 °F 68.0 °F 100% 29.73 in 7.0 mi West 4.6 mph - N/A Rain Light Rain
3:58 AM 68.0 °F 68.0 °F 100% 29.75 in 6.0 mi WSW 5.8 mph - 0.03 in Rain Light Rain
4:08 AM 68.0 °F 68.0 °F 100% 29.73 in 5.0 mi West 6.9 mph - N/A Rain Light Rain
4:13 AM 68.0 °F 68.0 °F 100% 29.73 in 6.0 mi West 6.9 mph - N/A Rain Light Rain
4:28 AM 68.0 °F 68.0 °F 100% 29.73 in 4.0 mi West 5.8 mph - N/A Rain Light Rain
4:30 AM 68.0 °F 68.0 °F 100% 29.73 in 4.0 mi West 4.6 mph - N/A Rain Light Rain
4:35 AM 68.0 °F 68.0 °F 100% 29.73 in 3.0 mi West 3.5 mph - N/A Rain Light Rain
4:40 AM 68.0 °F 68.0 °F 100% 29.73 in 2.5 mi West 6.9 mph - N/A Rain Rain
4:45 AM 68.0 °F 68.0 °F 100% 29.73 in 4.0 mi WNW 5.8 mph - N/A Rain Light Rain
4:50 AM 68.0 °F 68.0 °F 100% 29.73 in 6.0 mi WNW 5.8 mph - N/A Rain Light Rain
4:51 AM 68.0 °F 68.0 °F 100% 29.73 in 6.0 mi WNW 5.8 mph - N/A Rain Light Rain
4:56 AM 68.0 °F 68.0 °F 100% 29.73 in 4.0 mi WNW 4.6 mph - N/A Rain Rain
4:58 AM 67.8 °F 67.8 °F 100% 29.75 in 3.0 mi WNW 4.6 mph - 0.13 in Rain Heavy Rain
5:03 AM 68.0 °F 68.0 °F 100% 29.74 in 3.0 mi West 5.8 mph - N/A Rain Rain
5:08 AM 68.0 °F 68.0 °F 100% 29.74 in 3.0 mi West 5.8 mph - N/A Rain Rain
5:23 AM 66.2 °F 66.2 °F 100% 29.74 in 5.0 mi NNW 8.1 mph - N/A Rain Rain
5:28 AM 66.2 °F 66.2 °F 100% 29.75 in 5.0 mi NNW 6.9 mph - N/A Rain Rain
5:33 AM 66.2 °F 66.2 °F 100% 29.75 in 6.0 mi NNW 6.9 mph - N/A Rain Light Rain
5:43 AM 66.2 °F 66.2 °F 100% 29.75 in 6.0 mi NNW 5.8 mph - N/A Rain Light Rain
5:48 AM 66.2 °F 66.2 °F 100% 29.75 in 9.0 mi NNW 4.6 mph - N/A Rain Light Rain
5:58 AM 65.7 °F 65.7 °F 100% 29.78 in 9.0 mi NW 6.9 mph - 0.10 in Rain Light Rain
6:03 AM 66.2 °F 66.2 °F 100% 29.75 in 10.0 mi North 9.2 mph - N/A Rain Light Rain
6:13 AM 66.2 °F 66.2 °F 100% 29.75 in 8.0 mi North 4.6 mph - N/A Rain Light Rain
6:28 AM 64.4 °F 64.4 °F 100% 29.76 in 10.0 mi NNE 6.9 mph - N/A Rain Light Rain
6:43 AM 64.4 °F 64.4 °F 100% 29.76 in 8.0 mi North 4.6 mph - N/A Rain Light Rain
6:53 AM 64.4 °F 64.4 °F 100% 29.77 in 6.0 mi North 3.5 mph - N/A Rain Light Rain
6:58 AM 64.9 °F 64.9 °F 100% 29.79 in 4.0 mi North 8.1 mph - 0.02 in Rain Light Rain
7:13 AM 64.4 °F 64.4 °F 100% 29.78 in 10.0 mi North 8.1 mph - N/A   Overcast
7:16 AM 64.4 °F 64.4 °F 100% 29.78 in 10.0 mi NNE 11.5 mph - N/A Rain Light Rain
7:31 AM 64.4 °F 64.4 °F 100% 29.78 in 10.0 mi NNE 5.8 mph - N/A Rain Light Rain
7:37 AM 64.4 °F 64.4 °F 100% 29.78 in 10.0 mi NNE 4.6 mph - N/A   Overcast
7:42 AM 64.4 °F 64.4 °F 100% 29.78 in 10.0 mi North 4.6 mph - N/A   Overcast
7:47 AM 64.4 °F 64.4 °F 100% 29.78 in 10.0 mi Variable 4.6 mph - N/A   Overcast
7:57 AM 66.2 °F 66.2 °F 100% 29.78 in 10.0 mi NNW 4.6 mph - N/A   Mostly Cloudy
7:58 AM 66.2 °F 66.2 °F 100% 29.80 in 10.0 mi NNW 4.6 mph - 0.00 in   Mostly Cloudy
8:58 AM 66.4 °F 65.8 °F 98% 29.82 in 10.0 mi North 10.4 mph - 0.01 in   Overcast
9:58 AM 66.7 °F 65.7 °F 96% 29.83 in 10.0 mi North 9.2 mph - N/A   Overcast
10:58 AM 68.2 °F 64.0 °F 87% 29.83 in 10.0 mi North 12.7 mph - N/A   Overcast
11:58 AM 70.2 °F 63.5 °F 79% 29.83 in 10.0 mi NNE 13.8 mph - N/A   Overcast
12:28 PM 71.6 °F 62.6 °F 73% 29.82 in 10.0 mi NNE 13.8 mph - N/A   Overcast
12:43 PM 71.6 °F 62.6 °F 73% 29.81 in 10.0 mi NNE 13.8 mph 20.7 mph N/A   Mostly Cloudy
12:58 PM 72.9 °F 63.0 °F 71% 29.83 in 10.0 mi NNE 10.4 mph - N/A   Scattered Clouds
1:58 PM 74.1 °F 62.2 °F 66% 29.82 in 10.0 mi NNE 11.5 mph - N/A   Mostly Cloudy
2:58 PM 74.3 °F 60.6 °F 62% 29.81 in 10.0 mi NNE 13.8 mph 18.4 mph N/A   Partly Cloudy
3:58 PM 74.1 °F 58.8 °F 59% 29.82 in 10.0 mi NE 11.5 mph - N/A   Clear
4:58 PM 73.6 °F 51.8 °F 46% 29.82 in 10.0 mi NNE 13.8 mph - N/A   Clear
5:58 PM 72.0 °F 51.6 °F 49% 29.83 in 10.0 mi NNE 13.8 mph - N/A   Clear
6:58 PM 68.9 °F 54.7 °F 60% 29.85 in 10.0 mi NNE 10.4 mph - N/A   Clear
7:58 PM 67.6 °F 55.8 °F 66% 29.87 in 10.0 mi NNE 6.9 mph - N/A   Clear
8:58 PM 68.0 °F 55.9 °F 65% 29.88 in 10.0 mi NNE 9.2 mph - N/A   Clear
9:58 PM 67.3 °F 55.2 °F 65% 29.90 in 10.0 mi North 5.8 mph - N/A   Clear
10:58 PM 66.6 °F 55.0 °F 66% 29.90 in 10.0 mi NNE 5.8 mph - N/A   Clear
11:58 PM 64.4 °F 54.9 °F 71% 29.91 in 10.0 mi North 6.9 mph - N/A   Clear